Regional Weather Roundup
Issued by NWS

Home | Current Version | Previous Version | Text Only | Print | Product List | Glossary On
Versions: 1 2 3 4 5 6 7 8 9 10 11 12 13 14 15 16 17 18 19 20 21 22 23 24 25 26 27 28
000
ASUS46 KSEW 290410
RWRWA

WASHINGTON REGIONAL WEATHER ROUNDUP
NATIONAL WEATHER SERVICE SEATTLE WA
900 PM PDT THU JUL 28 2016

NOTE:"FAIR" INDICATES FEW OR NO CLOUDS BELOW 12,000 FEET WITH NO
SIGNIFICANT WEATHER AND/OR OBSTRUCTIONS TO VISIBILITY.

WAZ505-507>509-290500-
SEATTLE, TACOMA, EVERETT, AND VICINITY

CITY           SKY/WX    TMP DP  RH WIND       PRES   REMARKS
EVERETT        CLEAR     71  57  61 N6        30.04S
BOEING FIELD   CLEAR     80  56  43 NW3       30.00S
RENTON         CLEAR     80  61  52 NW8       30.00R
SEATAC AIRPORT CLEAR     79  62  56 N9        30.03S
JBLM-MCCHORD   CLEAR     78  59  51 NE5       30.01F
PUYALLUP       FAIR      75  61  60 CALM      30.02S
BREMERTON      CLEAR     75  57  53 N7        30.05S
JBLM-FT LEWIS  CLEAR     81  58  45 NW7       30.00F
TACOMA NARROWS CLEAR     76  56  49 N8        30.01S
$$

WAZ001-503-506-510-514-515-290500-
NORTH INTERIOR

CITY           SKY/WX    TMP DP  RH WIND       PRES   REMARKS
BELLINGHAM     CLEAR     69  62  78 CALM      30.02S
FRIDAY HARBOR  CLEAR     65  54  67 SW3       30.03S
EASTSOUND      CLEAR     68  59  73 CALM      30.00S
PORT ANGELES   CLEAR     70  56  61 W3        30.04F
EDIZ HOOK      FAIR      60  54  79 W12       30.03S
PORT TOWNSEND  FAIR      66  57  72 CALM      30.03S
NAS WHIDBEY    PTCLDY    61  52  72 CALM      30.07F
ARLINGTON      CLEAR     72  57  60 NW8       30.03R
BURLINGTON     CLEAR     68  59  73 CALM      30.03R
$$

WAZ020-022-039-040-504-511-512-290500-
SOUTHWEST INTERIOR

CITY           SKY/WX    TMP DP  RH WIND       PRES   REMARKS
SHELTON        CLEAR     80  59  48 W5        30.00R
OLYMPIA        CLEAR     80  54  40 N5        30.01R
CHEHALIS       FAIR      81  63  54 NW5       30.00S
KELSO          CLEAR     74  63  68 NW7       29.99R
VANCOUVER      CLEAR     83  59  44 NW8       29.93R
SCAPPOOSE, OR  CLEAR     83  57  41 NW8       29.93R
PORTLAND, OR   CLEAR     82  59  45 NW13      29.93R
$$

WAZ021-516-517-290500-
WASHINGTON COAST

CITY           SKY/WX    TMP DP  RH WIND       PRES   REMARKS
FORKS          CLEAR     60  57  89 W6        30.06R
HOQUIAM        CLEAR     60  58  92 SW8       30.04F
ASTORIA, OR    CLOUDY    60  56  86 W5        30.05S
$$

WAZ019-023-024-040-518-519-290500-
CASCADE MOUNTAINS AND COLUMBIA GORGE

CITY           SKY/WX    TMP DP  RH WIND       PRES   REMARKS
STAMPEDE PASS  CLEAR     63  51  65 VRB5      30.19R
TROUTDALE, OR  CLEAR     84  59  42 W6        29.92R
THE DALLES, OR CLEAR     89  60  37 NW16      29.85R
$$

WAZ026-027-041>044-520-521-290500-
EAST SLOPES

CITY           SKY/WX    TMP DP  RH WIND       PRES   REMARKS
OMAK           PTCLDY    86  49  27 NW14      29.93R
WENATCHEE      CLEAR     90  49  24 NW8       29.92R
ELLENSBURG     CLEAR     83  50  31 NW20G28   29.97S
YAKIMA         PTCLDY    89  53  29 NW12      29.92R
$$

WAZ028-034-035-290500-
COLUMBIA BASIN

CITY           SKY/WX    TMP DP  RH WIND       PRES   REMARKS
EPHRATA        CLEAR     84  49  29 W7        29.91R
MOSES LAKE     CLEAR     91  45  20 SW3       29.91S
PASCO          CLEAR     85  58  39 NW3       29.86R
HERMISTON, OR  CLEAR     83  52  34 E3        29.86S
$$

WAZ036>038-290500-
NORTHEAST WASHINGTON

CITY           SKY/WX    TMP DP  RH WIND       PRES   REMARKS
SPOKANE GEIGER PTCLDY    88  46  23 NE3       29.99S
SPOKANE FELTS  CLEAR     80  51  36 CALM      29.97S
FAIRCHILD AFB  CLEAR     85  43  23 NE5       30.00F
COEURDALENE,ID CLEAR     77  52  41 NE3       29.96R
DEER PARK      CLEAR     73  57  57 CALM      29.99S
$$

WAZ029>033-290500-
SOUTHEAST WASHINGTON

CITY           SKY/WX    TMP DP  RH WIND       PRES   REMARKS
PULLMAN        CLEAR     75  50  41 CALM      30.02R
LEWISTON, ID   CLEAR     91  45  20 N3        29.91R
WALLA WALLA    CLEAR     89  52  28 SE6       29.91R
PENDLETON, OR  CLEAR     80  43  26 NW7       29.92S
$$




USA.gov is the U.S. government's official web portal to all federal, state and local government web resources and services.